| time (UTC) | temp F | wind direction | speed MPH | gust MPH | rain 1hr in | rain 24hr in | rain mn in | humidity % | barometer mb |
| 20260504221544 | 84 | 127 | 1.0 | 5.0 | 0.00 | 0.00 | 0.00 | 38 | 1000.9 |
| 20260504220048 | 84 | 152 | 2.0 | 8.0 | 0.00 | 0.00 | 0.00 | 37 | 1001.1 |
| 20260504214555 | 84 | 304 | 1.0 | 10.0 | 0.00 | 0.00 | 0.00 | 37 | 1001.1 |
| 20260504213051 | 84 | 133 | 1.0 | 10.0 | 0.00 | 0.00 | 0.00 | 37 | 1001.3 |
| 20260504211549 | 84 | 132 | 1.0 | 7.0 | 0.00 | 0.00 | 0.00 | 36 | 1001.3 |
| 20260504210104 | 83 | 155 | 1.0 | 7.0 | 0.00 | 0.00 | 0.00 | 35 | 1001.4 |
| 20260504204559 | 83 | 142 | 1.0 | 7.0 | 0.00 | 0.00 | 0.00 | 37 | 1001.6 |
| 20260504203102 | 82 | 256 | 0.0 | 9.0 | 0.00 | 0.00 | 0.00 | 38 | 1001.7 |
| 20260504201551 | 82 | 148 | 1.0 | 10.0 | 0.00 | 0.00 | 0.00 | 38 | 1001.9 |
| 20260504200049 | 82 | 0 | 1.0 | 8.0 | 0.00 | 0.00 | 0.00 | 39 | 1001.9 |
| 20260504194600 | 81 | 147 | 1.0 | 5.0 | 0.00 | 0.00 | 0.00 | 41 | 1002.0 |
| 20260504193051 | 81 | 147 | 1.0 | 11.0 | 0.00 | 0.00 | 0.00 | 41 | 1002.1 |
| 20260504191555 | 81 | 131 | 1.0 | 5.0 | 0.00 | 0.00 | 0.00 | 42 | 1002.0 |
| 20260504190112 | 81 | 182 | 1.0 | 8.0 | 0.00 | 0.00 | 0.00 | 42 | 1002.0 |
| 20260504184552 | 80 | 188 | 1.0 | 10.0 | 0.00 | 0.00 | 0.00 | 44 | 1002.1 |
| 20260504183049 | 80 | 257 | 1.0 | 8.0 | 0.00 | 0.00 | 0.00 | 44 | 1002.3 |
| 20260504181544 | 79 | 0 | 2.0 | 8.0 | 0.00 | 0.00 | 0.00 | 43 | 1002.3 |
| 20260504180051 | 79 | 0 | 1.0 | 8.0 | 0.00 | 0.00 | 0.00 | 41 | 1002.3 |
| 20260504174555 | 78 | 147 | 1.0 | 7.0 | 0.00 | 0.00 | 0.00 | 45 | 1002.6 |
| 20260504173048 | 78 | 211 | 1.0 | 7.0 | 0.00 | 0.00 | 0.00 | 44 | 1002.6 |
| 20260504171543 | 77 | 195 | 2.0 | 8.0 | 0.00 | 0.00 | 0.00 | 44 | 1002.8 |
| 20260504081600 | 62 | 0 | 0.0 | 1.0 | 0.00 | 0.00 | 0.00 | 60 | 1005.1 |
| 20260504060104 | 67 | 0 | 0.0 | 0.0 | 0.00 | 0.00 | 0.00 | 53 | 1006.8 |
| 20260504050114 | 70 | 0 | 0.0 | 1.0 | 0.00 | 0.00 | 0.00 | 48 | 1007.5 |
| 20260504044550 | 70 | 0 | 0.0 | 10.0 | 0.00 | 0.00 | 0.00 | 49 | 1008.1 |
| 20260504043106 | 68 | 0 | 0.0 | 1.0 | 0.00 | 0.00 | 0.00 | 53 | 1007.7 |
| 20260504041548 | 68 | 0 | 0.0 | 1.0 | 0.00 | 0.00 | 0.00 | 53 | 1007.5 |
| 20260504040059 | 67 | 0 | 0.0 | 1.0 | 0.00 | 0.00 | 0.00 | 56 | 1007.6 |
| 20260504034552 | 66 | 0 | 0.0 | 2.0 | 0.00 | 0.00 | 0.00 | 58 | 1007.6 |
| 20260504033054 | 65 | 0 | 0.0 | 1.0 | 0.00 | 0.00 | 0.00 | 61 | 1008.0 |
| 20260504031547 | 66 | 0 | 0.0 | 0.0 | 0.00 | 0.00 | 0.00 | 61 | 1007.9 |
| 20260504030048 | 66 | 0 | 0.0 | 0.0 | 0.00 | 0.00 | 0.00 | 61 | 1007.6 |
| 20260504024549 | 67 | 0 | 0.0 | 0.0 | 0.00 | 0.00 | 0.00 | 59 | 1007.7 |
| 20260504023046 | 68 | 0 | 0.0 | 0.0 | 0.00 | 0.00 | 0.00 | 57 | 1007.7 |
| 20260504021547 | 69 | 0 | 0.0 | 0.0 | 0.00 | 0.00 | 0.00 | 54 | 1007.6 |
| 20260504020047 | 70 | 0 | 0.0 | 0.0 | 0.00 | 0.00 | 0.00 | 51 | 1007.5 |
| 20260504014600 | 72 | 0 | 0.0 | 0.0 | 0.00 | 0.00 | 0.00 | 49 | 1007.5 |
| 20260504013107 | 74 | 0 | 0.0 | 0.0 | 0.00 | 0.00 | 0.00 | 45 | 1007.4 |
| 20260504011550 | 76 | 0 | 0.0 | 0.0 | 0.00 | 0.00 | 0.00 | 42 | 1007.5 |
| 20260504010111 | 78 | 0 | 0.0 | 0.0 | 0.00 | 0.00 | 0.00 | 39 | 1007.4 |
| 20260504004547 | 80 | 0 | 0.0 | 0.0 | 0.00 | 0.00 | 0.00 | 37 | 1007.4 |
| 20260504003049 | 80 | 0 | 0.0 | 1.0 | 0.00 | 0.00 | 0.00 | 35 | 1007.4 |
| 20260504001559 | 81 | 0 | 0.0 | 1.0 | 0.00 | 0.00 | 0.00 | 32 | 1007.6 |
| 20260504000055 | 82 | 0 | 0.0 | 3.0 | 0.00 | 0.00 | 0.00 | 31 | 1007.6 |
| 20260503234550 | 82 | 0 | 0.0 | 3.0 | 0.00 | 0.00 | 0.00 | 31 | 1007.6 |
| 20260503233100 | 83 | 0 | 0.0 | 4.0 | 0.00 | 0.00 | 0.00 | 31 | 1007.7 |
| 20260503231552 | 82 | 0 | 0.0 | 8.0 | 0.00 | 0.00 | 0.00 | 32 | 1007.8 |
| 20260503230054 | 83 | 0 | 0.0 | 1.0 | 0.00 | 0.00 | 0.00 | 32 | 1007.9 |
| 20260503224550 | 83 | 273 | 0.0 | 5.0 | 0.00 | 0.00 | 0.00 | 32 | 1008.1 |
| 20260503223055 | 83 | 0 | 0.0 | 4.0 | 0.00 | 0.00 | 0.00 | 32 | 1008.2 |